Time,TemperatureF,DewpointF,PressureIn,WindDirection,WindDirectionDegrees,WindSpeedMPH,WindSpeedGustMPH,Humidity,HourlyPrecipIn,Conditions,Clouds,dailyrainin,SoftwareType,DateUTC
2013-10-20 00:00:00,61.7,23.8,30.00,NW,315,5.0,5.0,23,0.00,,,0.00,tws,2013-10-20 07:00:00,
2013-10-20 00:10:00,61.8,23.5,30.01,NW,315,4.3,5.2,22,0.00,,,0.00,tws,2013-10-20 07:10:00,
2013-10-20 00:20:00,61.7,22.9,30.01,NW,315,3.7,4.1,22,0.00,,,0.00,tws,2013-10-20 07:20:00,
2013-10-20 00:30:00,61.5,22.5,30.01,NW,315,4.3,5.2,22,0.00,,,0.00,tws,2013-10-20 07:30:00,
2013-10-20 00:40:00,61.4,22.9,30.00,NW,315,4.9,5.4,22,0.00,,,0.00,tws,2013-10-20 07:40:00,
2013-10-20 00:50:00,61.2,23.2,30.00,NW,315,4.6,5.5,22,0.00,,,0.00,tws,2013-10-20 07:50:00,
2013-10-20 01:00:00,61.1,22.7,30.00,NW,315,4.0,4.5,22,0.00,,,0.00,tws,2013-10-20 08:00:00,
2013-10-20 01:10:00,61.0,22.3,30.00,NW,315,3.5,4.0,22,0.00,,,0.00,tws,2013-10-20 08:10:00,
2013-10-20 01:20:00,60.7,22.3,30.00,East,90,2.7,3.9,22,0.00,,,0.00,tws,2013-10-20 08:20:00,
2013-10-20 01:30:00,60.1,22.7,30.01,ENE,67,0.0,0.0,23,0.00,,,0.00,tws,2013-10-20 08:30:00,
2013-10-20 01:40:00,59.3,23.3,30.00,NNW,337,0.0,0.0,24,0.00,,,0.00,tws,2013-10-20 08:40:00,
2013-10-20 01:50:00,58.3,23.5,30.00,NW,315,0.0,0.0,25,0.00,,,0.00,tws,2013-10-20 08:50:00,
2013-10-20 02:00:00,57.5,24.1,29.99,NW,315,0.0,0.0,27,0.00,,,0.00,tws,2013-10-20 09:00:00,
2013-10-20 02:10:00,56.8,24.4,30.00,NNW,337,0.0,0.0,28,0.00,,,0.00,tws,2013-10-20 09:10:00,
2013-10-20 02:20:00,56.3,23.1,29.99,North,0,0.0,0.0,27,0.00,,,0.00,tws,2013-10-20 09:20:00,
2013-10-20 02:30:00,55.8,23.4,30.00,North,0,0.0,0.0,28,0.00,,,0.00,tws,2013-10-20 09:30:00,
2013-10-20 02:40:00,55.4,23.8,29.99,WNW,292,0.1,0.5,29,0.00,,,0.00,tws,2013-10-20 09:40:00,
2013-10-20 02:50:00,55.1,23.5,29.99,NW,315,2.4,3.2,29,0.00,,,0.00,tws,2013-10-20 09:50:00,
2013-10-20 03:00:00,54.8,23.0,29.98,NW,315,2.7,3.5,28,0.00,,,0.00,tws,2013-10-20 10:00:00,
2013-10-20 03:10:00,54.9,23.2,29.98,NW,315,3.9,4.8,28,0.00,,,0.00,tws,2013-10-20 10:10:00,
2013-10-20 03:20:00,55.1,23.2,29.99,NW,315,3.3,3.8,28,0.00,,,0.00,tws,2013-10-20 10:20:00,
2013-10-20 03:30:00,55.2,23.6,29.99,NW,315,3.1,3.4,29,0.00,,,0.00,tws,2013-10-20 10:30:00,
2013-10-20 03:40:00,55.1,23.4,29.98,NW,315,2.6,3.4,28,0.00,,,0.00,tws,2013-10-20 10:40:00,
2013-10-20 03:50:00,55.0,24.0,29.98,North,0,0.1,1.0,29,0.00,,,0.00,tws,2013-10-20 10:50:00,
2013-10-20 04:00:00,54.8,24.4,29.98,NNW,337,0.0,0.0,30,0.00,,,0.00,tws,2013-10-20 11:00:00,
2013-10-20 04:10:00,54.4,24.6,29.97,North,0,0.0,0.0,31,0.00,,,0.00,tws,2013-10-20 11:10:00,
2013-10-20 04:20:00,53.9,24.2,29.98,NNW,337,0.0,0.0,31,0.00,,,0.00,tws,2013-10-20 11:20:00,
2013-10-20 04:30:00,53.5,24.1,29.98,NNW,337,1.7,4.2,31,0.00,,,0.00,tws,2013-10-20 11:30:00,
2013-10-20 04:40:00,53.1,22.8,29.97,NW,315,2.6,4.1,30,0.00,,,0.00,tws,2013-10-20 11:40:00,
2013-10-20 04:50:00,52.6,22.1,29.97,NW,315,0.7,2.6,30,0.00,,,0.00,tws,2013-10-20 11:50:00,
2013-10-20 05:00:00,52.3,22.4,29.98,NW,315,2.3,2.8,30,0.00,,,0.00,tws,2013-10-20 12:00:00,
2013-10-20 05:10:00,52.2,23.0,29.98,ESE,112,0.0,0.0,31,0.00,,,0.00,tws,2013-10-20 12:10:00,
2013-10-20 05:20:00,52.3,24.2,29.98,North,0,0.0,0.0,33,0.00,,,0.00,tws,2013-10-20 12:20:00,
2013-10-20 05:30:00,52.2,25.4,29.97,West,270,0.0,0.0,34,0.00,,,0.00,tws,2013-10-20 12:30:00,
2013-10-20 05:40:00,52.0,25.5,29.97,NW,315,0.0,0.0,35,0.00,,,0.00,tws,2013-10-20 12:40:00,
2013-10-20 05:50:00,51.6,25.9,29.97,North,0,0.0,0.0,36,0.00,,,0.00,tws,2013-10-20 12:50:00,
2013-10-20 06:00:00,51.1,25.8,29.98,North,0,0.7,2.8,37,0.00,,,0.00,tws,2013-10-20 13:00:00,
2013-10-20 06:10:00,50.6,25.2,29.98,NW,315,0.1,1.2,36,0.00,,,0.00,tws,2013-10-20 13:10:00,
2013-10-20 06:20:00,50.2,24.4,29.98,NW,315,0.0,0.0,36,0.00,,,0.00,tws,2013-10-20 13:20:00,
2013-10-20 06:30:00,49.8,24.4,29.98,NW,315,0.0,0.0,36,0.00,,,0.00,tws,2013-10-20 13:30:00,
2013-10-20 06:40:00,49.6,25.3,29.98,NW,315,0.0,0.0,38,0.00,,,0.00,tws,2013-10-20 13:40:00,
2013-10-20 06:50:00,49.4,25.9,29.99,West,270,0.0,0.0,39,0.00,,,0.00,tws,2013-10-20 13:50:00,
2013-10-20 07:00:00,49.2,25.4,29.98,NW,315,0.0,0.0,39,0.00,,,0.00,tws,2013-10-20 14:00:00,
2013-10-20 07:10:00,49.1,25.2,29.99,NW,315,0.0,0.0,38,0.00,,,0.00,tws,2013-10-20 14:10:00,
2013-10-20 07:20:00,49.1,26.1,29.98,NW,315,0.0,0.0,40,0.00,,,0.00,tws,2013-10-20 14:20:00,
2013-10-20 07:30:00,49.4,26.9,29.98,NW,315,0.0,0.0,41,0.00,,,0.00,tws,2013-10-20 14:30:00,
2013-10-20 07:40:00,50.2,27.8,29.98,WNW,292,0.8,2.4,41,0.00,,,0.00,tws,2013-10-20 14:40:00,
2013-10-20 07:50:00,51.8,29.4,30.00,WNW,292,0.0,0.0,41,0.00,,,0.00,tws,2013-10-20 14:50:00,
2013-10-20 08:00:00,53.8,30.4,30.00,NW,315,0.1,0.4,40,0.00,,,0.00,tws,2013-10-20 15:00:00,
2013-10-20 08:10:00,55.6,32.8,30.00,ENE,67,0.0,0.0,41,0.00,,,0.00,tws,2013-10-20 15:10:00,
2013-10-20 08:20:00,57.1,34.4,30.00,East,90,0.2,1.1,42,0.00,,,0.00,tws,2013-10-20 15:20:00,
2013-10-20 08:30:00,58.8,34.3,30.01,East,90,0.3,1.8,39,0.00,,,0.00,tws,2013-10-20 15:30:00,
2013-10-20 08:40:00,61.4,34.4,30.01,ESE,112,0.2,1.3,35,0.00,,,0.00,tws,2013-10-20 15:40:00,
2013-10-20 08:50:00,64.2,33.7,30.01,ESE,112,0.2,1.3,31,0.00,,,0.00,tws,2013-10-20 15:50:00,
2013-10-20 09:00:00,65.8,32.6,30.01,SSW,202,0.0,0.0,28,0.00,,,0.00,tws,2013-10-20 16:00:00,
2013-10-20 09:10:00,67.2,33.1,30.01,North,0,1.2,3.0,27,0.00,,,0.00,tws,2013-10-20 16:10:00,
2013-10-20 09:20:00,69.5,33.3,30.00,ENE,67,1.7,2.6,25,0.00,,,0.00,tws,2013-10-20 16:20:00,
2013-10-20 09:30:00,72.1,34.2,30.01,East,90,1.9,2.5,24,0.00,,,0.00,tws,2013-10-20 16:30:00,
2013-10-20 09:40:00,74.2,34.3,30.01,NW,315,2.1,3.2,22,0.00,,,0.00,tws,2013-10-20 16:40:00,
2013-10-20 09:50:00,74.7,32.2,30.01,East,90,1.8,2.9,20,0.00,,,0.00,tws,2013-10-20 16:50:00,
2013-10-20 10:00:00,74.3,33.0,29.99,SE,135,2.2,3.1,21,0.00,,,0.00,tws,2013-10-20 17:00:00,
2013-10-20 10:10:00,74.1,32.9,29.99,SE,135,2.4,3.1,21,0.00,,,0.00,tws,2013-10-20 17:10:00,
2013-10-20 10:20:00,74.1,32.3,30.00,SE,135,3.0,3.7,21,0.00,,,0.00,tws,2013-10-20 17:20:00,
2013-10-20 10:30:00,74.0,30.6,30.00,East,90,2.9,3.7,19,0.00,,,0.00,tws,2013-10-20 17:30:00,
2013-10-20 10:40:00,74.0,30.9,30.00,ESE,112,2.7,3.4,20,0.00,,,0.00,tws,2013-10-20 17:40:00,
2013-10-20 10:50:00,74.3,31.1,29.99,East,90,3.4,4.6,20,0.00,,,0.00,tws,2013-10-20 17:50:00,
2013-10-20 11:00:00,74.8,31.1,29.99,SE,135,3.3,4.5,19,0.00,,,0.00,tws,2013-10-20 18:00:00,
2013-10-20 11:10:00,75.3,32.0,29.99,ENE,67,3.2,3.6,20,0.00,,,0.00,tws,2013-10-20 18:10:00,
2013-10-20 11:20:00,76.0,31.5,29.99,South,180,3.5,5.4,19,0.00,,,0.00,tws,2013-10-20 18:20:00,
2013-10-20 11:30:00,76.4,30.8,29.98,SE,135,2.7,4.5,18,0.00,,,0.00,tws,2013-10-20 18:30:00,
2013-10-20 11:40:00,76.8,31.6,29.98,East,90,2.2,3.2,18,0.00,,,0.00,tws,2013-10-20 18:40:00,
2013-10-20 11:50:00,77.3,30.8,29.98,ENE,67,3.0,4.2,17,0.00,,,0.00,tws,2013-10-20 18:50:00,
2013-10-20 12:00:00,77.4,31.2,29.98,East,90,2.2,3.2,18,0.00,,,0.00,tws,2013-10-20 19:00:00,
2013-10-20 12:10:00,78.0,31.5,29.97,SE,135,3.5,6.9,18,0.00,,,0.00,tws,2013-10-20 19:10:00,
2013-10-20 12:20:00,78.6,30.9,29.96,SW,225,3.7,4.6,17,0.00,,,0.00,tws,2013-10-20 19:20:00,
2013-10-20 12:30:00,79.0,31.3,29.96,ESE,112,3.0,4.0,17,0.00,,,0.00,tws,2013-10-20 19:30:00,
2013-10-20 12:40:00,79.1,31.0,29.95,SW,225,3.6,5.8,17,0.00,,,0.00,tws,2013-10-20 19:40:00,
2013-10-20 12:50:00,79.1,30.3,29.95,SSE,157,4.3,7.2,16,0.00,,,0.00,tws,2013-10-20 19:50:00,
2013-10-20 13:00:00,79.6,30.7,29.94,SW,225,4.2,6.2,16,0.00,,,0.00,tws,2013-10-20 20:00:00,
2013-10-20 13:10:00,80.3,30.7,29.94,SW,225,4.9,7.3,16,0.00,,,0.00,tws,2013-10-20 20:10:00,
2013-10-20 13:20:00,80.5,30.6,29.93,SE,135,4.8,8.7,15,0.00,,,0.00,tws,2013-10-20 20:20:00,
2013-10-20 13:30:00,80.9,31.0,29.93,SE,135,4.2,6.3,15,0.00,,,0.00,tws,2013-10-20 20:30:00,
2013-10-20 13:40:00,81.3,30.9,29.91,South,180,3.2,6.4,15,0.00,,,0.00,tws,2013-10-20 20:40:00,
2013-10-20 13:50:00,81.3,30.3,29.92,South,180,4.6,8.5,15,0.00,,,0.00,tws,2013-10-20 20:50:00,
2013-10-20 14:00:00,81.4,30.3,29.92,SW,225,5.8,8.5,15,0.00,,,0.00,tws,2013-10-20 21:00:00,
2013-10-20 14:10:00,81.5,30.1,29.92,SSW,202,5.6,8.7,15,0.00,,,0.00,tws,2013-10-20 21:10:00,
2013-10-20 14:20:00,81.5,29.8,29.91,ESE,112,7.3,9.9,14,0.00,,,0.00,tws,2013-10-20 21:20:00,
2013-10-20 14:30:00,81.6,29.5,29.92,South,180,6.2,8.3,14,0.00,,,0.00,tws,2013-10-20 21:30:00,
2013-10-20 14:40:00,81.9,29.5,29.91,West,270,6.1,10.7,14,0.00,,,0.00,tws,2013-10-20 21:40:00,
2013-10-20 14:50:00,82.1,29.9,29.92,SW,225,6.7,10.3,14,0.00,,,0.00,tws,2013-10-20 21:50:00,
2013-10-20 15:00:00,82.3,29.6,29.91,SW,225,6.5,8.0,14,0.00,,,0.00,tws,2013-10-20 22:00:00,
2013-10-20 15:10:00,82.4,29.4,29.91,South,180,5.8,7.9,14,0.00,,,0.00,tws,2013-10-20 22:10:00,
2013-10-20 15:20:00,82.5,29.4,29.91,South,180,7.0,9.3,14,0.00,,,0.00,tws,2013-10-20 22:20:00,
2013-10-20 15:30:00,82.4,29.3,29.90,SW,225,5.3,7.4,14,0.00,,,0.00,tws,2013-10-20 22:30:00,
2013-10-20 15:40:00,82.6,29.0,29.91,SW,225,5.1,7.3,14,0.00,,,0.00,tws,2013-10-20 22:40:00,
2013-10-20 15:50:00,82.8,29.3,29.90,South,180,5.8,9.4,14,0.00,,,0.00,tws,2013-10-20 22:50:00,
2013-10-20 16:00:00,82.8,30.6,29.90,South,180,4.1,6.6,14,0.00,,,0.00,tws,2013-10-20 23:00:00,
2013-10-20 16:10:00,83.0,30.4,29.89,SE,135,4.0,5.8,14,0.00,,,0.00,tws,2013-10-20 23:10:00,
2013-10-20 16:20:00,82.9,29.7,29.90,SW,225,4.2,5.4,14,0.00,,,0.00,tws,2013-10-20 23:20:00,
2013-10-20 16:30:00,82.4,29.1,29.89,SE,135,4.6,6.5,14,0.00,,,0.00,tws,2013-10-20 23:30:00,
2013-10-20 16:40:00,81.9,28.9,29.90,South,180,6.6,8.1,14,0.00,,,0.00,tws,2013-10-20 23:40:00,
2013-10-20 16:50:00,81.2,27.8,29.89,SW,225,5.0,6.8,13,0.00,,,0.00,tws,2013-10-20 23:50:00,
2013-10-20 17:00:00,80.4,28.0,29.89,South,180,4.7,7.5,14,0.00,,,0.00,tws,2013-10-21 00:00:00,
2013-10-20 17:10:00,79.6,27.5,29.89,West,270,5.1,6.7,14,0.00,,,0.00,tws,2013-10-21 00:10:00,
2013-10-20 17:20:00,79.1,27.2,29.89,SW,225,2.9,3.6,14,0.00,,,0.00,tws,2013-10-21 00:20:00,
2013-10-20 17:30:00,78.7,27.6,29.89,South,180,2.9,3.7,15,0.00,,,0.00,tws,2013-10-21 00:30:00,
2013-10-20 17:40:00,78.0,27.7,29.89,West,270,2.4,3.1,15,0.00,,,0.00,tws,2013-10-21 00:40:00,
2013-10-20 17:50:00,77.2,29.1,29.90,West,270,1.5,2.8,16,0.00,,,0.00,tws,2013-10-21 00:50:00,
2013-10-20 18:00:00,76.1,29.7,29.90,NW,315,1.7,3.4,17,0.00,,,0.00,tws,2013-10-21 01:00:00,
2013-10-20 18:10:00,74.8,29.4,29.92,WSW,247,2.9,3.3,18,0.00,,,0.00,tws,2013-10-21 01:10:00,
2013-10-20 18:20:00,73.8,28.0,29.91,NW,315,2.6,3.1,18,0.00,,,0.00,tws,2013-10-21 01:20:00,
2013-10-20 18:30:00,73.0,27.1,29.90,WNW,292,3.0,3.8,17,0.00,,,0.00,tws,2013-10-21 01:30:00,
2013-10-20 18:40:00,72.3,27.3,29.90,NW,315,3.4,4.2,18,0.00,,,0.00,tws,2013-10-21 01:40:00,
2013-10-20 18:50:00,71.7,27.3,29.91,NW,315,2.8,3.1,18,0.00,,,0.00,tws,2013-10-21 01:50:00,
2013-10-20 19:00:00,71.0,28.3,29.91,NW,315,2.6,3.0,20,0.00,,,0.00,tws,2013-10-21 02:00:00,
2013-10-20 19:10:00,70.3,28.6,29.92,NNW,337,2.9,3.4,20,0.00,,,0.00,tws,2013-10-21 02:10:00,
2013-10-20 19:20:00,69.7,28.4,29.93,NW,315,2.9,3.6,21,0.00,,,0.00,tws,2013-10-21 02:20:00,
2013-10-20 19:30:00,69.1,28.0,29.93,NNW,337,4.3,5.3,21,0.00,,,0.00,tws,2013-10-21 02:30:00,
2013-10-20 19:40:00,68.6,26.4,29.93,NW,315,4.7,5.4,20,0.00,,,0.00,tws,2013-10-21 02:40:00,
2013-10-20 19:50:00,68.2,25.7,29.93,NW,315,4.5,5.2,19,0.00,,,0.00,tws,2013-10-21 02:50:00,
2013-10-20 20:00:00,67.9,25.4,29.92,NNW,337,3.9,4.5,19,0.00,,,0.00,tws,2013-10-21 03:00:00,
2013-10-20 20:10:00,67.6,24.8,29.94,NW,315,4.0,4.6,19,0.00,,,0.00,tws,2013-10-21 03:10:00,
2013-10-20 20:20:00,67.3,24.8,29.93,NW,315,4.5,6.2,19,0.00,,,0.00,tws,2013-10-21 03:20:00,
2013-10-20 20:30:00,67.2,24.9,29.93,NW,315,4.3,5.5,19,0.00,,,0.00,tws,2013-10-21 03:30:00,
2013-10-20 20:40:00,67.1,25.0,29.94,NW,315,4.6,5.2,20,0.00,,,0.00,tws,2013-10-21 03:40:00,
2013-10-20 20:50:00,66.9,24.8,29.94,NW,315,4.1,5.0,20,0.00,,,0.00,tws,2013-10-21 03:50:00,
2013-10-20 21:00:00,66.9,24.0,29.95,WNW,292,4.6,5.3,19,0.00,,,0.00,tws,2013-10-21 04:00:00,
2013-10-20 21:10:00,66.9,24.8,29.95,NW,315,4.2,4.7,20,0.00,,,0.00,tws,2013-10-21 04:10:00,
2013-10-20 21:20:00,66.7,24.8,29.95,NW,315,3.8,4.5,20,0.00,,,0.00,tws,2013-10-21 04:20:00,
2013-10-20 21:30:00,66.3,25.0,29.96,NW,315,4.4,5.5,20,0.00,,,0.00,tws,2013-10-21 04:30:00,
2013-10-20 21:40:00,65.8,25.2,29.96,NW,315,4.6,5.4,21,0.00,,,0.00,tws,2013-10-21 04:40:00,
2013-10-20 21:50:00,65.2,25.3,29.96,NNW,337,5.3,7.5,21,0.00,,,0.00,tws,2013-10-21 04:50:00,
2013-10-20 22:00:00,64.7,24.7,29.96,NW,315,5.8,6.5,21,0.00,,,0.00,tws,2013-10-21 05:00:00,
2013-10-20 22:10:00,64.5,24.5,29.96,NW,315,5.2,6.6,21,0.00,,,0.00,tws,2013-10-21 05:10:00,
2013-10-20 22:20:00,64.5,24.4,29.96,WNW,292,3.2,4.3,21,0.00,,,0.00,tws,2013-10-21 05:20:00,
2013-10-20 22:30:00,64.3,24.4,29.96,West,270,3.2,4.0,21,0.00,,,0.00,tws,2013-10-21 05:30:00,
2013-10-20 22:40:00,63.9,23.8,29.96,NW,315,3.7,4.5,21,0.00,,,0.00,tws,2013-10-21 05:40:00,
2013-10-20 22:50:00,63.4,23.6,29.96,West,270,4.2,5.1,21,0.00,,,0.00,tws,2013-10-21 05:50:00,
2013-10-20 23:00:00,63.3,23.6,29.96,WNW,292,3.6,4.8,21,0.00,,,0.00,tws,2013-10-21 06:00:00,
2013-10-20 23:10:00,63.3,23.8,29.96,NW,315,4.1,4.5,21,0.00,,,0.00,tws,2013-10-21 06:10:00,
2013-10-20 23:20:00,63.2,24.4,29.96,NW,315,4.5,5.2,22,0.00,,,0.00,tws,2013-10-21 06:20:00,
2013-10-20 23:30:00,63.0,24.4,29.96,NW,315,4.0,5.5,22,0.00,,,0.00,tws,2013-10-21 06:30:00,
2013-10-20 23:40:00,63.0,24.6,29.96,NW,315,3.3,4.0,22,0.00,,,0.00,tws,2013-10-21 06:40:00,
2013-10-20 23:50:00,62.9,25.1,29.96,WNW,292,4.0,4.6,23,0.00,,,0.00,tws,2013-10-21 06:50:00,